星链-1954 (STARLINK-1954 )

导读 | 豆包AI

STARLINK-1954是美国太空探索技术公司星链卫星星座中的一颗卫星,于2021年2月4日发射。星链计划旨在构建全球卫星互联网星座,为全球偏远地区、海洋等场景提供高速互联网接入服务,该卫星承担着卫星星座组网运营,拓展全球网络覆盖范围的相关任务。

基本信息
目录编号:
47555
目录名称:
STARLINK-1954
国际标识:
2021-009H
轨道中心:
EARTH
卫星名称:
星链-1954
卫星全名:
星链-1954 (STARLINK-1954 )
卫星状态:
在轨 (已飞行1911 天)
发射日期:
2021-02-04 UTC
国别 :
美国 (US)
星等 :
--
轨道信息
数据来源 国际轨道数据 AOE轨道数据
星历时间 2026-04-30T12:34:19+0800
6小时前
查看轨道信息
2026-04-26T02:00:00+0800
4天前
查看轨道信息
半长轴 6834.943km 6836.431km
偏心率 0.000454 0.0004211
轨道倾角 53.052° 53.053°
近地点辐角 12.533° 349.471°
升交点赤经 129.090° 149.955°
平近点角 347.578° 280.261°
近地点 453.702km 455.415km
远地点 459.91km 461.173km
周期 93.726分钟 93.757分钟
每日圈数 15.363865 15.358848
详细信息
固有亮度:
5
最大亮度:
2.5
卫星平台:
Starlink V1.0
覆盖范围:
全球
运营商:
太空探索技术公司
运营商所在国:
美国
制造商(研发单位):
太空探索技术公司
制造商所在国:
美国
使用方式:
暂无
卫星简介
星链(Starlink)计划是由太空探索技术公司(SpaceX)提出的一个巨型低轨卫星互联网星座项目,计划在2019年至2024年间在太空搭建由约1.2万颗卫星组成的“星链”网络,其中1584颗将部署在地球上空550千米处的近地轨道,并从2020年开始工作。该卫星仍在工作。
2D轨道图
3D轨道图
轨道高度分析图
轨道倾角分析图
轨道综合分析图
查看轨道综合分析图